EW6089 Weather Reports


time (UTC)temp
F
wind
direction
speed
knots
gust
knots
rain 1hr
in
rain 24hr
in
rain mn
in
humidity
%
barometer
mb
20260508203016 56 0.0 0.9 0.00 0.00 0.00 71 1021.8
20260508202016 55 0.0 2.6 0.00 0.00 0.00 72 1021.7
20260508201016 55 0.0 1.7 0.00 0.00 0.00 74 1021.7
20260508200016 55 0.0 1.7 0.00 0.00 0.00 75 1021.7
20260508195016 55 0.0 0.9 0.00 0.00 0.00 74 1021.7
20260508194016 54 0.0 1.7 0.00 0.00 0.00 76 1021.6
20260508193036 54 0.0 0.0 0.00 0.00 0.00 77 1021.6
20260508192016 54 0.0 0.9 0.00 0.00 0.00 77 1021.6
20260508191036 54 0.0 0.9 0.00 0.00 0.00 76 1021.6
20260508190015 54 0.0 3.5 0.00 0.00 0.00 76 1021.5
20260508185016 54 0.0 1.7 0.00 0.00 0.00 75 1021.5
20260508184035 54 0.0 2.6 0.00 0.00 0.00 77 1021.4
20260508183015 54 0.0 1.7 0.00 0.00 0.00 77 1021.2
20260508182015 53 0.0 2.6 0.00 0.00 0.00 77 1021.2
20260508181015 53 0.0 2.6 0.00 0.00 0.00 78 1021.3
20260508180015 53 0.0 0.0 0.00 0.00 0.00 78 1021.2
20260508175015 53 0.0 1.7 0.00 0.00 0.00 78 1021.0
20260508174017 53 0.0 1.7 0.00 0.00 0.00 78 1020.7
20260508173016 53 0.0 2.6 0.00 0.00 0.00 79 1020.5
20260508172016 53 0.0 0.9 0.00 0.00 0.00 82 1020.4
20260508171015 53 0.0 0.9 0.00 0.00 0.00 82 1020.2
20260508170016 52 0.0 0.9 0.00 0.00 0.00 82 1020.2
20260508165016 52 113 0.9 2.6 0.00 0.00 0.00 81 1020.0
20260508164015 52 0.0 0.9 0.00 0.00 0.00 82 1020.0
20260508163015 52 0.0 0.9 0.00 0.00 0.00 82 1020.0
20260508162016 52 0.0 1.7 0.00 0.00 0.00 82 1020.0
20260508161015 51 0.0 1.7 0.00 0.00 0.00 83 1020.0
20260508160015 51 0.0 0.9 0.00 0.00 0.00 84 1020.1
20260508155015 51 0.0 1.7 0.00 0.00 0.00 83 1020.2
20260508154035 51 0.0 1.7 0.00 0.00 0.00 84 1020.3
20260508153017 51 0.0 0.9 0.00 0.00 0.00 85 1020.3
20260508152017 51 0.0 2.6 0.00 0.00 0.00 85 1020.2
20260508151018 50 135 0.9 3.5 0.00 0.00 0.00 86 1020.0
20260508150017 51 68 1.7 6.1 0.00 0.00 0.00 85 1019.9
20260508145018 51 90 0.9 6.1 0.00 0.00 0.00 86 1019.7
20260508144015 51 113 0.9 4.3 0.00 0.00 0.00 86 1019.5
20260508143017 51 0.0 0.9 0.00 0.00 0.00 89 1019.1
20260508142018 50 0.0 0.9 0.00 0.00 0.00 88 1019.0
20260508141017 49 0.0 2.6 0.00 0.00 0.00 91 1018.9
20260508140017 49 0.0 0.0 0.00 0.00 0.00 93 1018.5
20260508135037 48 0.0 0.0 0.00 0.00 0.00 94 1018.4
20260508134017 48 0.0 0.0 0.00 0.00 0.00 94 1018.4
20260508133017 47 0.0 0.0 0.00 0.00 0.00 94 1018.2
20260508132037 47 0.0 0.0 0.00 0.00 0.00 94 1018.1
20260508131017 47 0.0 0.0 0.00 0.00 0.00 93 1017.9
20260508130018 47 0.0 0.0 0.00 0.00 0.00 93 1017.9
20260508125017 47 0.0 0.9 0.00 0.00 0.00 93 1017.8
20260508124017 47 0.0 0.0 0.00 0.00 0.00 93 1017.7
20260508123017 47 0.0 0.0 0.00 0.00 0.00 93 1017.6
20260508122017 47 0.0 0.0 0.00 0.00 0.00 93 1017.5
20260508121037 47 0.0 0.0 0.00 0.00 0.00 93 1017.5
20260508120017 47 0.0 0.0 0.00 0.00 0.00 93 1017.5
20260508115017 47 0.0 0.0 0.00 0.00 0.00 93 1017.4
20260508114039 47 0.0 0.0 0.00 0.00 0.00 93 1017.3
20260508113057 47 0.0 0.0 0.00 0.00 0.00 93 1017.3
20260508112017 47 0.0 0.0 0.00 0.00 0.00 93 1017.2
20260508111037 47 0.0 0.0 0.00 0.00 0.00 93 1017.1
20260508110017 47 0.0 0.0 0.00 0.00 0.00 93 1017.0
20260508105017 47 0.0 0.0 0.00 0.00 0.00 93 1017.0
20260508104017 47 0.0 0.0 0.00 0.00 0.00 94 1016.9
20260508103017 47 0.0 0.0 0.00 0.00 0.00 94 1016.8
20260508102037 47 0.0 0.0 0.00 0.00 0.00 94 1016.7
20260508101017 47 0.0 0.0 0.00 0.00 0.00 93 1016.7
20260508100017 47 0.0 0.0 0.00 0.00 0.00 94 1016.6
20260508095037 47 0.0 0.0 0.00 0.00 0.00 94 1016.6
20260508094037 48 0.0 0.0 0.00 0.00 0.00 94 1016.7
20260508093037 47 0.0 0.0 0.00 0.00 0.00 93 1016.6
20260508092037 48 0.0 0.0 0.00 0.00 0.00 93 1016.6
20260508091017 48 0.0 0.0 0.00 0.00 0.00 93 1016.7
20260508090017 48 0.0 0.0 0.00 0.00 0.00 94 1016.6
20260508085018 48 0.0 0.0 0.00 0.00 0.00 93 1016.6
20260508084016 48 0.0 0.0 0.00 0.00 0.00 94 1016.7
20260508083016 48 0.0 0.0 0.00 0.00 0.00 93 1016.7
20260508082016 48 0.0 0.0 0.00 0.00 0.00 93 1016.7
20260508081016 48 0.0 0.0 0.00 0.00 0.00 93 1016.7
20260508080016 48 0.0 0.0 0.00 0.00 0.00 93 1016.8
20260508075016 48 0.0 0.0 0.00 0.00 0.00 93 1016.8
20260508074017 48 0.0 0.0 0.00 0.00 0.00 93 1016.8
20260508073016 49 0.0 0.0 0.00 0.00 0.00 92 1016.7
20260508072017 49 0.0 0.0 0.00 0.00 0.00 92 1016.8
20260508071016 49 0.0 0.0 0.00 0.00 0.00 92 1016.8
20260508070016 49 0.0 0.0 0.00 0.00 0.00 92 1016.9
20260508065017 49 0.0 0.0 0.00 0.00 0.00 91 1016.9
20260508064017 49 0.0 0.0 0.00 0.00 0.00 91 1016.9
20260508063017 49 0.0 0.0 0.00 0.00 0.00 91 1017.0
20260508062037 50 0.0 0.0 0.00 0.00 0.00 90 1017.0
20260508061017 50 0.0 0.0 0.00 0.00 0.00 90 1017.0
20260508060016 50 0.0 0.0 0.00 0.00 0.00 90 1017.1
20260508055017 50 0.0 0.0 0.00 0.00 0.00 90 1017.1
20260508054016 51 0.0 0.0 0.00 0.00 0.00 89 1017.1
20260508053036 51 0.0 0.0 0.00 0.00 0.00 89 1017.0
20260508052016 51 0.0 0.0 0.00 0.00 0.00 88 1017.0
20260508051017 51 0.0 0.0 0.00 0.00 0.00 88 1016.9
20260508050016 52 0.0 0.0 0.00 0.00 0.00 87 1017.0
20260508045017 52 0.0 0.0 0.00 0.00 0.00 86 1017.1
20260508044036 53 0.0 0.0 0.00 0.00 0.00 86 1017.2
20260508043016 53 0.0 0.0 0.00 0.00 0.00 85 1017.2
20260508042016 53 0.0 0.0 0.00 0.00 0.00 84 1017.2
20260508041016 54 0.0 0.0 0.00 0.00 0.00 83 1017.1
20260508040017 54 0.0 0.0 0.00 0.00 0.00 82 1017.1
20260508035016 55 0.0 0.0 0.00 0.00 0.00 82 1017.1
20260508034017 55 0.0 0.0 0.00 0.00 0.00 81 1017.0
20260508033016 56 0.0 0.0 0.00 0.00 0.00 79 1017.0
20260508032016 56 0.0 0.0 0.00 0.00 0.00 80 1017.0
20260508031036 57 0.0 0.0 0.00 0.00 0.00 78 1017.1
20260508030016 57 0.0 0.0 0.00 0.00 0.00 78 1017.1
20260508025016 58 0.0 0.0 0.00 0.00 0.00 77 1017.1
20260508024016 59 0.0 0.0 0.00 0.00 0.00 75 1017.1
20260508023016 59 0.0 0.0 0.00 0.00 0.00 74 1017.2
20260508022036 60 0.0 0.0 0.00 0.00 0.00 74 1017.3
20260508021016 60 0.0 0.0 0.00 0.00 0.00 72 1017.2
20260508020016 61 0.0 0.0 0.00 0.00 0.00 72 1017.2
20260508015016 61 0.0 0.0 0.00 0.00 0.00 71 1017.2
20260508014016 61 0.0 0.9 0.00 0.00 0.00 66 1017.3
20260508013016 62 0.0 0.0 0.00 0.00 0.00 65 1017.4
20260508012016 61 0.0 0.0 0.00 0.00 0.00 66 1017.5
20260508011016 61 0.0 0.0 0.00 0.00 0.00 67 1017.7
20260508010037 61 0.0 1.7 0.00 0.00 0.00 67 1017.7
20260508005016 62 0.0 0.9 0.00 0.00 0.00 68 1017.9
20260508004016 62 0.0 0.9 0.00 0.00 0.00 66 1017.9
20260508003016 61 0.0 0.9 0.00 0.00 0.00 66 1017.9
20260508002016 61 0.0 1.7 0.00 0.00 0.00 66 1018.0
20260508001016 61 0.0 0.9 0.00 0.00 0.00 67 1018.0
20260508000016 61 0.0 1.7 0.00 0.00 0.00 66 1018.1
20260507235016 61 0.0 1.7 0.00 0.00 0.00 67 1018.1
20260507234016 61 0.0 0.0 0.00 0.00 0.00 69 1018.2
20260507233016 61 0.0 0.9 0.00 0.00 0.00 68 1018.1
20260507232016 61 0.0 0.9 0.00 0.00 0.00 68 1018.2
20260507231016 61 0.0 0.9 0.00 0.00 0.00 68 1018.4
20260507230016 61 0.0 0.9 0.00 0.00 0.00 69 1018.5
20260507225016 61 0.0 0.9 0.00 0.00 0.00 70 1018.5
20260507224016 61 0.0 0.0 0.00 0.00 0.00 69 1018.6
20260507223015 60 0.0 0.9 0.00 0.00 0.00 70 1018.7
20260507222016 60 0.0 1.7 0.00 0.00 0.00 71 1018.7
20260507221016 60 0.0 1.7 0.00 0.00 0.00 71 1018.8
20260507220016 60 0.0 1.7 0.00 0.00 0.00 70 1018.9
20260507215015 60 0.0 0.9 0.00 0.00 0.00 71 1019.1
20260507214015 60 0.0 0.9 0.00 0.00 0.00 72 1019.2
20260507213015 60 0.0 0.0 0.00 0.00 0.00 72 1019.3
20260507212016 59 0.0 0.9 0.00 0.00 0.00 71 1019.4
20260507211015 59 0.0 0.0 0.00 0.00 0.00 73 1019.5
20260507210016 59 0.0 2.6 0.00 0.00 0.00 70 1019.6
20260507205056 59 0.0 1.7 0.00 0.00 0.00 73 1019.6
20260507204035 58 0.0 2.6 0.00 0.00 0.00 73 1019.8